[[{"header":{"parameterUnit":"m.s-1","parameterCategory":1,"la1":30.2991,"la2":30.254,"lo1":-89.0895,"lo2":-89.0444,"dy":0.0017,"dx":0.0017,"nx":28,"ny":28,"refTime":"2024-07-17T21:00:00:Z","depth":0,"parameterNumber":2,"parameterNumberName":"U-component_of_WINDS"},"data":[0,0,0,0,0,0,0,0,0,0,0,0,0,0,0,0,0,0,0,0,0,0,0,0,0,0,0,0,0,0,0,0,0,0,0,0,0,0,0,0,0,0,0,0,0,0,0,0,0,0,0,0,0,0,0,0,0,0,3.2833,3.2833,0,3.2871,3.2871,3.2872,3.2813,3.2811,3.2809,3.2807,3.2847,3.2849,3.2852,0,0,0,0,0,0,0,0,0,0,0,0,0,3.2706,3.2709,3.2832,3.2833,3.2833,3.2871,3.2871,3.2872,3.2813,3.2811,3.2808,3.2806,3.2846,3.2849,3.2853,0,0,0,0,0,0,0,0,0,0,0,0,0,3.2754,3.271,3.2832,3.2809,3.2807,3.2871,3.2871,3.2872,3.2814,3.2811,3.2808,3.2805,3.2844,3.2849,3.2853,3.2942,0,0,3.2867,3.2869,0,0,0,0,0,0,0,0,3.2752,3.2759,3.2812,3.281,3.2809,3.2834,3.2841,3.2896,3.2815,3.2811,3.2807,3.2803,3.2845,3.2849,3.2863,3.2944,3.2946,3.2867,3.287,3.2872,3.2873,0,0,0,0,0,0,0,3.2748,3.2757,3.2848,3.2812,3.2811,3.2795,3.2799,3.2851,3.2845,3.2811,3.2807,3.2812,3.2843,3.2859,3.2864,3.2946,3.2867,3.2871,3.2874,3.2875,3.3097,3.31,0,0,0,0,0,0,3.2748,3.2755,3.2846,3.2849,3.2772,3.28,3.2804,3.2829,3.2844,3.2843,3.2815,3.281,3.2853,3.2858,3.2865,3.2966,3.2872,3.2876,3.2878,3.3094,3.3098,3.3101,0,0,0,0,0,0,3.2746,3.2757,3.2845,3.2801,3.2811,3.2806,3.2834,3.2831,3.2847,3.2847,3.2845,3.2832,3.2851,3.2858,3.2922,3.2967,3.2878,3.2882,3.309,3.3095,3.31,3.3172,0,0,0,0,0,0,3.2742,3.2756,3.2791,3.2802,3.2813,3.2903,3.2837,3.2834,3.2854,3.2848,3.2863,3.2862,3.2849,3.2916,3.2927,3.2971,3.2885,3.3086,3.3093,3.3098,3.3166,3.3179,3.319,0,0,0,0,0,3.2738,3.2811,3.2793,3.2804,3.2856,3.2905,3.2912,3.2895,3.2859,3.2892,3.2892,3.2862,3.2961,3.2923,3.2935,3.2981,3.3083,3.3091,3.3098,3.316,3.3176,3.319,0,0,0,0,0,0,3.2806,3.2812,3.2792,3.2871,3.2888,3.2895,3.2938,3.2913,3.2941,3.2934,3.2912,3.2916,3.2983,3.2989,3.2947,3.3066,3.3016,3.3026,3.3059,3.3075,3.3087,3.3083,3.2889,0,0,0,0,0,3.2831,3.287,3.2873,3.2942,3.2952,3.2943,3.2964,3.2949,3.2966,3.2973,3.2978,3.2995,3.3029,3.3053,3.3085,3.3167,3.3167,3.3205,3.3217,3.3227,3.3235,3.3274,3.329,3.3125,3.3125,3.3125,0,0,3.2881,3.2889,3.2916,3.2956,3.2967,3.3007,3.295,3.2996,3.3025,3.298,3.3039,3.3043,3.3061,3.3133,3.3165,3.314,3.3281,3.3236,3.3244,3.3247,3.3284,3.3299,3.3313,3.313,3.3129,3.3129,0,0,3.2993,3.3004,3.3061,3.3073,3.309,3.3084,3.3097,3.3108,3.3108,3.3167,3.3133,3.3168,3.3229,3.3241,3.3256,3.3369,3.3341,3.3381,3.3443,3.3482,3.3495,3.3506,3.3543,3.3557,3.3389,3.3389,3.3389,0,3.3053,3.3112,3.3093,3.314,3.3157,3.3118,3.3174,3.3187,3.3214,3.3226,3.3198,3.3271,3.3281,3.3353,3.338,3.3395,3.3407,3.3378,3.3495,3.3506,3.3516,3.3551,3.3565,3.3394,3.3393,3.3393,3.3392,0,3.3184,3.3225,3.3269,3.3294,3.3317,3.3368,3.3355,3.338,3.3363,3.3359,3.3418,3.3428,3.3459,3.3476,3.3461,3.3546,3.3529,3.3499,3.3447,3.3537,3.3568,3.3582,3.34,3.3398,3.3397,3.3396,0,0,3.334,3.3352,3.3368,3.3377,3.3392,3.3423,3.3472,3.3502,3.3522,3.3542,3.358,3.3632,3.3602,3.3618,3.3604,3.3639,3.3723,3.3603,3.3603,3.3622,3.3812,3.3832,3.3848,3.3705,3.3708,3.371,3.3809,0,3.3447,3.353,3.3513,3.3594,3.3629,3.3592,3.3633,3.3647,3.3644,3.3673,3.3671,3.3705,3.3666,3.3675,3.3708,3.3706,3.376,3.3699,3.3738,3.374,3.3732,3.3866,3.3888,3.3982,3.3822,3.3824,3.3826,0,3.3585,3.3607,3.3691,3.3696,3.3711,3.3749,3.3772,3.3802,3.3815,3.3811,3.3828,3.3806,3.3852,3.3802,3.3864,3.3822,3.3838,3.3839,3.3842,3.3843,3.3786,3.3867,3.4011,3.4024,3.3846,3.3844,3.3843,0,3.3685,3.3737,3.3792,3.3802,3.3811,3.3838,3.3843,3.3853,3.3871,3.3892,3.3903,3.393,3.3944,3.3965,3.395,3.3916,3.4013,3.3963,3.4008,3.4008,3.4028,3.4027,3.4174,3.4044,3.4044,3.4044,3.4043,0,3.3805,3.3857,3.3836,3.3871,3.3926,3.3906,3.3962,3.3962,3.3971,3.4003,3.3974,3.4005,3.3985,3.4014,3.4003,3.4054,3.4061,3.4057,3.4053,3.4058,3.4058,3.4065,3.4057,3.4047,3.4047,3.4046,3.4045,0,3.3925,3.3915,3.3972,3.3975,3.3977,3.4017,3.4019,3.405,3.4045,3.4085,3.4094,3.4085,3.4117,3.4105,3.4141,3.4133,3.4196,3.4186,3.4191,3.4187,3.4232,3.4227,3.4387,3.4405,3.4267,3.4268,3.4269,0,3.4001,3.404,3.4046,3.4065,3.4071,3.4103,3.412,3.4101,3.412,3.4136,3.4164,3.4193,3.4215,3.4269,3.4265,3.4291,3.4278,3.4332,3.4282,3.4284,3.4274,3.4271,3.4273,3.4342,3.4343,3.4345,3.4346,0,3.4136,3.4127,3.4153,3.4176,3.4197,3.4215,3.423,3.4247,3.4228,3.4251,3.4282,3.43,3.4334,3.4362,3.4385,3.4389,3.4363,3.4362,3.4373,3.4377,3.4377,3.4373,3.4215,3.4358,3.4357,3.4356,3.4355,3.4355,3.4234,3.4264,3.4272,3.4301,3.4309,3.4323,3.4351,3.4348,3.4374,3.4399,3.4387,3.4422,3.4432,3.4459,3.4467,3.4494,3.4472,3.449,3.4493,3.4497,3.4501,3.4375,3.4498,3.4498,3.4498,3.4497,3.4497,0,3.4363,3.4365,3.4392,3.4412,3.4434,3.4408,3.4423,3.4442,3.4474,3.4485,3.4506,3.4541,3.4568,3.4566,3.459,3.4612,3.4601,3.4619,3.4615,3.4616,3.4521,3.4507,3.4627,3.4627,3.4627,3.4627,3.4627,3.4627,3.4432,3.4481,3.4474,3.4526,3.4528,3.4562,3.4572,3.4584,3.4592,3.4631,3.4653,3.4651,3.4656,3.468,3.4702,3.4701,3.471,3.4731,3.4725,3.4636,3.4623,3.4611,3.4597,3.4735,3.4735,3.4818,3.4818,3.4819]},{"header":{"parameterUnit":"m.s-1","parameterCategory":1,"la1":30.2991,"la2":30.254,"lo1":-89.0895,"lo2":-89.0444,"dy":0.0017,"dx":0.0017,"nx":28,"ny":28,"refTime":"2024-07-17T21:00:00:Z","depth":0,"parameterNumber":3,"parameterNumberName":"V-component_of_WINDS"},"data":[0,0,0,0,0,0,0,0,0,0,0,0,0,0,0,0,0,0,0,0,0,0,0,0,0,0,0,0,0,0,0,0,0,0,0,0,0,0,0,0,0,0,0,0,0,0,0,0,0,0,0,0,0,0,0,0,0,0,4.1379,4.1381,0,4.1573,4.1576,4.1578,4.1583,4.1581,4.1579,4.1576,4.1768,4.1775,4.1783,0,0,0,0,0,0,0,0,0,0,0,0,0,4.1005,4.1012,4.1379,4.1382,4.1384,4.1573,4.1576,4.1578,4.1584,4.1581,4.1578,4.1575,4.1766,4.1775,4.1783,0,0,0,0,0,0,0,0,0,0,0,0,0,4.118,4.1014,4.1379,4.141,4.1414,4.1572,4.1576,4.1579,4.1584,4.1581,4.1577,4.1574,4.1763,4.1774,4.1785,4.1923,0,0,4.1818,4.1823,0,0,0,0,0,0,0,0,4.117,4.1194,4.1403,4.1408,4.1413,4.1551,4.1514,4.1694,4.1585,4.152,4.1576,4.1572,4.1698,4.1714,4.1758,4.1932,4.194,4.1819,4.1826,4.183,4.1833,0,0,0,0,0,0,0,4.1158,4.1185,4.1456,4.1406,4.1412,4.1411,4.1432,4.1548,4.1626,4.1525,4.1526,4.1549,4.17,4.1748,4.1763,4.1943,4.1819,4.1828,4.1835,4.1839,4.2236,4.224,0,0,0,0,0,0,4.1141,4.1175,4.145,4.1462,4.1281,4.1421,4.1444,4.151,4.1625,4.1639,4.1552,4.1549,4.1731,4.175,4.177,4.1938,4.183,4.1841,4.1847,4.2232,4.2237,4.2241,0,0,0,0,0,0,4.1133,4.1165,4.1442,4.1319,4.1354,4.1431,4.1505,4.1516,4.1563,4.1646,4.1659,4.1587,4.1729,4.1754,4.1885,4.1944,4.1845,4.1855,4.2228,4.2234,4.2239,4.2275,0,0,0,0,0,0,4.1122,4.1162,4.1218,4.132,4.1361,4.1556,4.1509,4.1522,4.1583,4.158,4.1681,4.1695,4.1728,4.1868,4.1895,4.1958,4.1864,4.2222,4.223,4.2237,4.2269,4.2281,4.2292,0,0,0,0,0,4.1109,4.1219,4.1221,4.1254,4.1432,4.156,4.1582,4.1621,4.1588,4.1642,4.1695,4.1691,4.1933,4.1881,4.1912,4.1978,4.2219,4.2228,4.2237,4.2264,4.2279,4.2292,0,0,0,0,0,0,4.112,4.1233,4.1236,4.1384,4.1462,4.156,4.1631,4.1636,4.1724,4.1718,4.1759,4.1782,4.1911,4.1957,4.1898,4.2117,4.2072,4.2087,4.2082,4.2097,4.2108,4.2094,4.1873,0,0,0,0,0,4.114,4.1237,4.1329,4.145,4.149,4.1554,4.1611,4.1633,4.1715,4.1748,4.181,4.1888,4.1981,4.2042,4.2132,4.2275,4.2296,4.2336,4.2347,4.2357,4.2369,4.2446,4.2464,4.2271,4.227,4.227,0,0,4.1182,4.1255,4.1314,4.1454,4.1518,4.1614,4.1581,4.1685,4.1757,4.1763,4.189,4.1938,4.2027,4.2164,4.2227,4.2207,4.2427,4.2368,4.2375,4.2383,4.2457,4.2475,4.2492,4.2277,4.2276,4.2275,0,0,4.1307,4.1373,4.1481,4.1545,4.1642,4.1684,4.1709,4.1807,4.1839,4.1968,4.1974,4.2058,4.2218,4.2281,4.2334,4.2481,4.248,4.2509,4.257,4.2644,4.2659,4.2673,4.2724,4.2741,4.2521,4.2521,4.2521,0,4.1346,4.1494,4.1535,4.1639,4.1699,4.1711,4.1818,4.1878,4.1999,4.2039,4.2015,4.2215,4.2276,4.2427,4.2463,4.2506,4.2534,4.2498,4.2654,4.2668,4.2682,4.273,4.2749,4.2524,4.2524,4.2523,4.2523,0,4.1536,4.1639,4.1713,4.1831,4.19,4.2005,4.2059,4.2123,4.2139,4.2182,4.231,4.2384,4.2489,4.2526,4.2542,4.2678,4.2663,4.2646,4.2602,4.2702,4.2749,4.2768,4.2528,4.2527,4.2526,4.2526,0,0,4.1675,4.1814,4.184,4.1893,4.2,4.2079,4.2182,4.2287,4.234,4.2422,4.2509,4.2643,4.2628,4.2688,4.2711,4.2777,4.2886,4.2752,4.2754,4.2773,4.3038,4.3049,4.307,4.2886,4.2889,4.2892,4.303,0,4.1811,4.1999,4.2038,4.2199,4.2293,4.2304,4.2394,4.2468,4.251,4.2593,4.2639,4.2733,4.2707,4.2743,4.2809,4.2859,4.2939,4.2849,4.2964,4.2968,4.2941,4.3095,4.3107,4.3234,4.3048,4.3051,4.3054,0,4.1995,4.2083,4.2255,4.2348,4.2389,4.247,4.2567,4.2647,4.273,4.2755,4.2822,4.2837,4.2942,4.2893,4.3037,4.2975,4.3024,4.3055,4.3061,4.3072,4.3016,4.3109,4.3275,4.3293,4.3083,4.308,4.3078,0,4.2077,4.2239,4.2362,4.2407,4.2519,4.2575,4.2624,4.2703,4.2762,4.2846,4.2885,4.2979,4.3031,4.3102,4.3141,4.3102,4.3282,4.3236,4.3304,4.3303,4.3341,4.3338,4.3516,4.3374,4.3374,4.3373,4.3373,0,4.2225,4.2329,4.24,4.2476,4.2592,4.2633,4.2746,4.2793,4.2864,4.2946,4.2961,4.3038,4.3085,4.3168,4.3199,4.3312,4.3335,4.3357,4.3364,4.3356,4.3353,4.3388,4.338,4.3378,4.3377,4.3376,4.3375,0,4.2336,4.2389,4.2523,4.2618,4.2644,4.2725,4.2805,4.2877,4.2919,4.3023,4.305,4.3115,4.3213,4.3259,4.338,4.34,4.3529,4.353,4.3501,4.3504,4.3568,4.3561,4.3774,4.3804,4.3643,4.3645,4.3646,0,4.2426,4.2507,4.2611,4.2668,4.2719,4.2811,4.2872,4.2915,4.2977,4.3076,4.3136,4.3235,4.3317,4.3472,4.3528,4.3619,4.3622,4.3691,4.3636,4.3625,4.3622,4.3616,4.3623,4.37,4.3702,4.3703,4.3704,0,4.258,4.2602,4.2691,4.2789,4.2861,4.2939,4.3016,4.3061,4.3116,4.3185,4.3286,4.3349,4.3473,4.357,4.3665,4.3712,4.3717,4.3721,4.3741,4.3733,4.3713,4.3723,4.3527,4.3716,4.3715,4.3714,4.3713,4.3713,4.2683,4.2755,4.2839,4.2936,4.2999,4.307,4.3142,4.3193,4.3279,4.3384,4.3403,4.351,4.3588,4.3717,4.3767,4.3849,4.3833,4.3863,4.387,4.3877,4.3879,4.37,4.3867,4.3866,4.3866,4.3866,4.3866,0,4.2837,4.2891,4.2981,4.3088,4.3164,4.3164,4.3248,4.3311,4.3406,4.3479,4.3559,4.3674,4.3767,4.3831,4.3925,4.3978,4.3982,4.4001,4.3997,4.4008,4.3889,4.3862,4.3996,4.3996,4.3996,4.3996,4.3996,4.3996,4.2926,4.3046,4.3077,4.3227,4.328,4.3387,4.3435,4.3499,4.3558,4.3686,4.3765,4.3806,4.3875,4.3974,4.4058,4.4074,4.4107,4.4127,4.4142,4.403,4.4016,4.4003,4.3978,4.4134,4.4134,4.4253,4.4254,4.4255]}]]